Tracking 20241 objects as of 26-Jan-2020
HD Live streaming from Space Station
objects crossing your sky now

TITAN 3C TRANSTAGE DEB

Track TITAN 3C TRANSTAGE DEB now!
10-day predictions


NORAD ID: 1859
Int'l Code: 1965-082ES
Perigee: 694.9 km
Apogee: 793.7 km
Inclination: 32.1 °
Period: 99.6 minutes
Semi major axis: 7115 km
RCS: 0.1777 m2 (medium)
Launch date: October 15, 1965
Source: United States (US)
Launch site: AIR FORCE EASTERN TEST RANGE (AFETR)

Note: This is SATELLITE DEBRIS
aabbcc
Your satellite tracking list
Your tracking list is empty




NASA's NSSDC Master Catalog

Two Line Element Set (TLE):
1  1859U 65082ES  20025.53611939 +.00000078 +00000-0 +11247-4 0  9994
2  1859 032.1278 327.5048 0069455 318.3106 041.2255 14.46475261848591
Source of the keplerian elements: AFSPC